owner,sensor,date,latitude,longitude,vertical_datum,wind_speed,wind_to_direction,wind_speed_of_gust,qcFlag 
ADCP,ioos:station:wmo:42887:1,2010-06-01T00:00:00Z,28.1910,-88.4960,48.2,2.8,286.0,99.0,'11111222,11111222,11144222' 
ADCP,ioos:station:wmo:42887:1,2010-06-01T00:20:00Z,28.1910,-88.4960,48.2,1.9,286.0,99.0,'11111222,11111222,11144222' 
ADCP,ioos:station:wmo:42887:1,2010-06-01T00:40:00Z,28.1910,-88.4960,48.2,2.0,286.0,99.0,'11111222,11111222,11144222' 
ADCP,ioos:station:wmo:42887:1,2010-06-01T01:00:00Z,28.1910,-88.4960,48.2,1.7,282.0,99.0,'11111222,11111222,11144222' 
ADCP,ioos:station:wmo:42887:1,2010-06-01T01:20:00Z,28.1910,-88.4960,48.2,1.8,282.0,99.0,'11111222,11111222,11144222' 
ADCP,ioos:station:wmo:42887:1,2010-06-01T01:40:00Z,28.1910,-88.4960,48.2,2.2,282.0,99.0,'11111222,11111222,11144222' 
ADCP,ioos:station:wmo:42887:1,2010-06-01T02:00:00Z,28.1910,-88.4960,48.2,1.5,282.0,99.0,'11111222,11111222,11144222' 
ADCP,ioos:station:wmo:42887:1,2010-06-01T02:20:00Z,28.1910,-88.4960,48.2,2.9,270.0,99.0,'11111222,11111222,11144222' 
ADCP,ioos:station:wmo:42887:1,2010-06-01T02:40:00Z,28.1910,-88.4960,48.2,2.9,263.0,99.0,'11111222,11111222,11144222' 
ADCP,ioos:station:wmo:42887:1,2010-06-01T03:00:00Z,28.1910,-88.4960,48.2,2.4,248.0,99.0,'11111222,11111222,11144222' 
ADCP,ioos:station:wmo:42887:1,2010-06-01T03:20:00Z,28.1910,-88.4960,48.2,3.1,192.0,99.0,'11111222,11111222,11144222' 
ADCP,ioos:station:wmo:42887:1,2010-06-01T04:00:00Z,28.1910,-88.4960,48.2,5.0,168.0,99.0,'11111222,11111222,11144222' 
ADCP,ioos:station:wmo:42887:1,2010-06-01T04:20:00Z,28.1910,-88.4960,48.2,4.1,175.0,99.0,'11111222,11111222,11144222' 
ADCP,ioos:station:wmo:42887:1,2010-06-01T04:40:00Z,28.1910,-88.4960,48.2,4.2,171.0,99.0,'11111222,11111222,11144222' 
ADCP,ioos:station:wmo:42887:1,2010-06-01T05:00:00Z,28.1910,-88.4960,48.2,3.7,170.0,99.0,'11111222,11111222,11144222' 
ADCP,ioos:station:wmo:42887:1,2010-06-01T05:20:00Z,28.1910,-88.4960,48.2,4.4,166.0,99.0,'11111222,11111222,11144222' 
ADCP,ioos:station:wmo:42887:1,2010-06-01T05:40:00Z,28.1910,-88.4960,48.2,3.2,163.0,99.0,'11111222,11111222,11144222' 
ADCP,ioos:station:wmo:42887:1,2010-06-01T06:00:00Z,28.1910,-88.4960,48.2,4.0,164.0,99.0,'11111222,11111222,11144222' 
ADCP,ioos:station:wmo:42887:1,2010-06-01T06:20:00Z,28.1910,-88.4960,48.2,4.2,164.0,99.0,'11111222,11111222,11144222' 
ADCP,ioos:station:wmo:42887:1,2010-06-01T06:40:00Z,28.1910,-88.4960,48.2,3.6,163.0,99.0,'11111222,11111222,11144222' 
ADCP,ioos:station:wmo:42887:1,2010-06-01T07:00:00Z,28.1910,-88.4960,48.2,3.9,171.0,99.0,'11111222,11111222,11144222' 
ADCP,ioos:station:wmo:42887:1,2010-06-01T07:20:00Z,28.1910,-88.4960,48.2,4.1,175.0,99.0,'11111222,11111222,11144222' 
ADCP,ioos:station:wmo:42887:1,2010-06-01T07:40:00Z,28.1910,-88.4960,48.2,2.5,174.0,99.0,'11111222,11111222,11144222' 
ADCP,ioos:station:wmo:42887:1,2010-06-01T08:00:00Z,28.1910,-88.4960,48.2,2.8,176.0,99.0,'11111222,11111222,11144222' 
ADCP,ioos:station:wmo:42887:1,2010-06-01T08:20:00Z,28.1910,-88.4960,48.2,2.7,177.0,99.0,'11111222,11111222,11144222' 
ADCP,ioos:station:wmo:42887:1,2010-06-01T08:40:00Z,28.1910,-88.4960,48.2,3.2,177.0,99.0,'11111222,11111222,11144222' 
ADCP,ioos:station:wmo:42887:1,2010-06-01T09:00:00Z,28.1910,-88.4960,48.2,2.5,177.0,99.0,'11111222,11111222,11144222' 
ADCP,ioos:station:wmo:42887:1,2010-06-01T09:20:00Z,28.1910,-88.4960,48.2,2.5,177.0,99.0,'11111222,11111222,11144222' 
ADCP,ioos:station:wmo:42887:1,2010-06-01T09:40:00Z,28.1910,-88.4960,48.2,1.5,177.0,99.0,'11111222,11111222,11144222' 
ADCP,ioos:station:wmo:42887:1,2010-06-01T10:00:00Z,28.1910,-88.4960,48.2,1.1,177.0,99.0,'11111222,11111222,11144222' 
ADCP,ioos:station:wmo:42887:1,2010-06-01T10:20:00Z,28.1910,-88.4960,48.2,1.7,177.0,99.0,'11111222,11111222,11144222' 
ADCP,ioos:station:wmo:42887:1,2010-06-01T10:40:00Z,28.1910,-88.4960,48.2,1.1,177.0,99.0,'11111222,11111222,11144222' 
ADCP,ioos:station:wmo:42887:1,2010-06-01T11:00:00Z,28.1910,-88.4960,48.2,3.5,177.0,99.0,'11111222,11111222,11144222' 
ADCP,ioos:station:wmo:42887:1,2010-06-01T11:20:00Z,28.1910,-88.4960,48.2,5.8,273.0,99.0,'11111222,11111222,11144222' 
ADCP,ioos:station:wmo:42887:1,2010-06-01T11:40:00Z,28.1910,-88.4960,48.2,7.1,312.0,99.0,'11111222,11111222,11144222' 
ADCP,ioos:station:wmo:42887:1,2010-06-01T12:00:00Z,28.1910,-88.4960,48.2,7.3,162.0,99.0,'11111222,11111222,11144222' 
ADCP,ioos:station:wmo:42887:1,2010-06-01T12:20:00Z,28.1910,-88.4960,48.2,3.0,137.0,99.0,'11111222,11111222,11144222' 
ADCP,ioos:station:wmo:42887:1,2010-06-01T12:40:00Z,28.1910,-88.4960,48.2,2.9,137.0,99.0,'11111222,11111222,11144222' 
ADCP,ioos:station:wmo:42887:1,2010-06-01T13:00:00Z,28.1910,-88.4960,48.2,2.7,188.0,99.0,'11111222,11111222,11144222' 
ADCP,ioos:station:wmo:42887:1,2010-06-01T13:20:00Z,28.1910,-88.4960,48.2,3.7,179.0,99.0,'11111222,11111222,11144222' 
ADCP,ioos:station:wmo:42887:1,2010-06-01T13:40:00Z,28.1910,-88.4960,48.2,4.5,164.0,99.0,'11111222,11111222,11144222' 
ADCP,ioos:station:wmo:42887:1,2010-06-01T14:00:00Z,28.1910,-88.4960,48.2,2.4,155.0,99.0,'11111222,11111222,11144222' 
ADCP,ioos:station:wmo:42887:1,2010-06-01T14:20:00Z,28.1910,-88.4960,48.2,2.1,155.0,99.0,'11111222,11111222,11144222' 
ADCP,ioos:station:wmo:42887:1,2010-06-01T14:40:00Z,28.1910,-88.4960,48.2,1.3,155.0,99.0,'11111222,11111222,11144222' 
ADCP,ioos:station:wmo:42887:1,2010-06-01T15:00:00Z,28.1910,-88.4960,48.2,0.7,153.0,99.0,'11111222,11111222,11144222' 
ADCP,ioos:station:wmo:42887:1,2010-06-01T15:20:00Z,28.1910,-88.4960,48.2,0.2,154.0,99.0,'11111222,11111222,11144222' 
ADCP,ioos:station:wmo:42887:1,2010-06-01T15:40:00Z,28.1910,-88.4960,48.2,0.0,325.0,99.0,'11111222,11111222,11144222' 
ADCP,ioos:station:wmo:42887:1,2010-06-01T16:00:00Z,28.1910,-88.4960,48.2,1.7,152.0,99.0,'11111222,11111222,11144222' 
ADCP,ioos:station:wmo:42887:1,2010-06-01T16:20:00Z,28.1910,-88.4960,48.2,2.5,152.0,99.0,'11111222,11111222,11144222' 
ADCP,ioos:station:wmo:42887:1,2010-06-01T16:40:00Z,28.1910,-88.4960,48.2,2.2,152.0,99.0,'11111222,11111222,11144222' 
ADCP,ioos:station:wmo:42887:1,2010-06-01T17:00:00Z,28.1910,-88.4960,48.2,2.9,152.0,99.0,'11111222,11111222,11144222' 
ADCP,ioos:station:wmo:42887:1,2010-06-01T17:20:00Z,28.1910,-88.4960,48.2,1.6,152.0,99.0,'11111222,11111222,11144222' 
ADCP,ioos:station:wmo:42887:1,2010-06-01T17:40:00Z,28.1910,-88.4960,48.2,2.5,152.0,99.0,'11111222,11111222,11144222' 
ADCP,ioos:station:wmo:42887:1,2010-06-01T18:00:00Z,28.1910,-88.4960,48.2,2.7,152.0,99.0,'11111222,11111222,11144222' 
ADCP,ioos:station:wmo:42887:1,2010-06-01T18:20:00Z,28.1910,-88.4960,48.2,2.2,152.0,99.0,'11111222,11111222,11144222' 
ADCP,ioos:station:wmo:42887:1,2010-06-01T18:40:00Z,28.1910,-88.4960,48.2,2.0,152.0,99.0,'11111222,11111222,11144222' 
ADCP,ioos:station:wmo:42887:1,2010-06-01T19:00:00Z,28.1910,-88.4960,48.2,2.8,152.0,99.0,'11111222,11111222,11144222' 
ADCP,ioos:station:wmo:42887:1,2010-06-01T19:20:00Z,28.1910,-88.4960,48.2,2.2,152.0,99.0,'11111222,11111222,11144222' 
ADCP,ioos:station:wmo:42887:1,2010-06-01T19:40:00Z,28.1910,-88.4960,48.2,1.9,152.0,99.0,'11111222,11111222,11144222' 
ADCP,ioos:station:wmo:42887:1,2010-06-01T20:00:00Z,28.1910,-88.4960,48.2,1.8,152.0,99.0,'11111222,11111222,11144222' 
ADCP,ioos:station:wmo:42887:1,2010-06-01T20:20:00Z,28.1910,-88.4960,48.2,3.0,152.0,99.0,'11111222,11111222,11144222' 
ADCP,ioos:station:wmo:42887:1,2010-06-01T20:40:00Z,28.1910,-88.4960,48.2,2.0,152.0,99.0,'11111222,11111222,11144222' 
ADCP,ioos:station:wmo:42887:1,2010-06-01T21:00:00Z,28.1910,-88.4960,48.2,3.1,152.0,99.0,'11111222,11111222,11144222' 
ADCP,ioos:station:wmo:42887:1,2010-06-01T21:20:00Z,28.1910,-88.4960,48.2,2.1,152.0,99.0,'11111222,11111222,11144222' 
ADCP,ioos:station:wmo:42887:1,2010-06-01T21:40:00Z,28.1910,-88.4960,48.2,2.2,152.0,99.0,'11111222,11111222,11144222' 
ADCP,ioos:station:wmo:42887:1,2010-06-01T22:00:00Z,28.1910,-88.4960,48.2,2.4,152.0,99.0,'11111222,11111222,11144222' 
ADCP,ioos:station:wmo:42887:1,2010-06-01T22:40:00Z,28.1910,-88.4960,48.2,2.1,152.0,99.0,'11111222,11111222,11144222' 
ADCP,ioos:station:wmo:42887:1,2010-06-01T23:00:00Z,28.1910,-88.4960,48.2,1.9,153.0,99.0,'11111222,11111222,11144222' 
ADCP,ioos:station:wmo:42887:1,2010-06-01T23:20:00Z,28.1910,-88.4960,48.2,1.8,152.0,99.0,'11111222,11111222,11144222' 
ADCP,ioos:station:wmo:42887:1,2010-06-01T23:40:00Z,28.1910,-88.4960,48.2,2.1,153.0,99.0,'11111222,11111222,11144222' 
ADCP,ioos:station:wmo:42887:1,2010-06-02T00:00:00Z,28.1910,-88.4960,48.2,2.3,153.0,99.0,'11111222,11111222,11144222' 
ADCP,ioos:station:wmo:42887:1,2010-06-02T00:20:00Z,28.1910,-88.4960,48.2,2.4,152.0,99.0,'11111222,11111222,11144222' 
ADCP,ioos:station:wmo:42887:1,2010-06-02T00:40:00Z,28.1910,-88.4960,48.2,1.7,152.0,99.0,'11111222,11111222,11144222' 
ADCP,ioos:station:wmo:42887:1,2010-06-02T01:00:00Z,28.1910,-88.4960,48.2,2.3,152.0,99.0,'11111222,11111222,11144222' 
ADCP,ioos:station:wmo:42887:1,2010-06-02T01:20:00Z,28.1910,-88.4960,48.2,1.4,152.0,99.0,'11111222,11111222,11144222' 
ADCP,ioos:station:wmo:42887:1,2010-06-02T01:40:00Z,28.1910,-88.4960,48.2,2.1,152.0,99.0,'11111222,11111222,11144222' 
ADCP,ioos:station:wmo:42887:1,2010-06-02T02:00:00Z,28.1910,-88.4960,48.2,1.0,152.0,99.0,'11111222,11111222,11144222' 
ADCP,ioos:station:wmo:42887:1,2010-06-02T02:20:00Z,28.1910,-88.4960,48.2,2.0,152.0,99.0,'11111222,11111222,11144222' 
ADCP,ioos:station:wmo:42887:1,2010-06-02T02:40:00Z,28.1910,-88.4960,48.2,1.8,152.0,99.0,'11111222,11111222,11144222' 
ADCP,ioos:station:wmo:42887:1,2010-06-02T03:00:00Z,28.1910,-88.4960,48.2,1.3,152.0,99.0,'11111222,11111222,11144222' 
ADCP,ioos:station:wmo:42887:1,2010-06-02T03:20:00Z,28.1910,-88.4960,48.2,1.8,152.0,99.0,'11111222,11111222,11144222' 
ADCP,ioos:station:wmo:42887:1,2010-06-02T03:40:00Z,28.1910,-88.4960,48.2,1.9,152.0,99.0,'11111222,11111222,11144222' 
ADCP,ioos:station:wmo:42887:1,2010-06-02T04:00:00Z,28.1910,-88.4960,48.2,1.1,153.0,99.0,'11111222,11111222,11144222' 
ADCP,ioos:station:wmo:42887:1,2010-06-02T04:20:00Z,28.1910,-88.4960,48.2,2.0,152.0,99.0,'11111222,11111222,11144222' 
ADCP,ioos:station:wmo:42887:1,2010-06-02T04:40:00Z,28.1910,-88.4960,48.2,2.4,152.0,99.0,'11111222,11111222,11144222' 
ADCP,ioos:station:wmo:42887:1,2010-06-02T05:00:00Z,28.1910,-88.4960,48.2,4.1,152.0,99.0,'11111222,11111222,11144222' 
ADCP,ioos:station:wmo:42887:1,2010-06-02T05:20:00Z,28.1910,-88.4960,48.2,3.8,153.0,99.0,'11111222,11111222,11144222' 
ADCP,ioos:station:wmo:42887:1,2010-06-02T05:40:00Z,28.1910,-88.4960,48.2,3.3,153.0,99.0,'11111222,11111222,11144222' 
ADCP,ioos:station:wmo:42887:1,2010-06-02T06:00:00Z,28.1910,-88.4960,48.2,4.2,153.0,99.0,'11111222,11111222,11144222' 
ADCP,ioos:station:wmo:42887:1,2010-06-02T06:20:00Z,28.1910,-88.4960,48.2,3.6,153.0,99.0,'11111222,11111222,11144222' 
ADCP,ioos:station:wmo:42887:1,2010-06-02T06:40:00Z,28.1910,-88.4960,48.2,4.2,152.0,99.0,'11111222,11111222,11144222' 
ADCP,ioos:station:wmo:42887:1,2010-06-02T07:00:00Z,28.1910,-88.4960,48.2,3.5,153.0,99.0,'11111222,11111222,11144222' 
ADCP,ioos:station:wmo:42887:1,2010-06-02T07:20:00Z,28.1910,-88.4960,48.2,4.9,158.0,99.0,'11111222,11111222,11144222' 
ADCP,ioos:station:wmo:42887:1,2010-06-02T07:40:00Z,28.1910,-88.4960,48.2,4.8,160.0,99.0,'11111222,11111222,11144222' 
ADCP,ioos:station:wmo:42887:1,2010-06-02T08:00:00Z,28.1910,-88.4960,48.2,4.9,162.0,99.0,'11111222,11111222,11144222' 
ADCP,ioos:station:wmo:42887:1,2010-06-02T08:20:00Z,28.1910,-88.4960,48.2,4.4,164.0,99.0,'11111222,11111222,11144222' 
ADCP,ioos:station:wmo:42887:1,2010-06-02T08:40:00Z,28.1910,-88.4960,48.2,4.1,159.0,99.0,'11111222,11111222,11144222' 
ADCP,ioos:station:wmo:42887:1,2010-06-02T09:00:00Z,28.1910,-88.4960,48.2,5.8,170.0,99.0,'11111222,11111222,11144222' 
ADCP,ioos:station:wmo:42887:1,2010-06-02T09:20:00Z,28.1910,-88.4960,48.2,4.8,165.0,99.0,'11111222,11111222,11144222' 
ADCP,ioos:station:wmo:42887:1,2010-06-02T09:40:00Z,28.1910,-88.4960,48.2,5.2,164.0,99.0,'11111222,11111222,11144222' 
ADCP,ioos:station:wmo:42887:1,2010-06-02T10:00:00Z,28.1910,-88.4960,48.2,4.9,166.0,99.0,'11111222,11111222,11144222' 
ADCP,ioos:station:wmo:42887:1,2010-06-02T10:20:00Z,28.1910,-88.4960,48.2,4.1,172.0,99.0,'11111222,11111222,11144222' 
ADCP,ioos:station:wmo:42887:1,2010-06-02T10:40:00Z,28.1910,-88.4960,48.2,4.9,172.0,99.0,'11111222,11111222,11144222' 
ADCP,ioos:station:wmo:42887:1,2010-06-02T11:00:00Z,28.1910,-88.4960,48.2,6.0,165.0,99.0,'11111222,11111222,11144222' 
ADCP,ioos:station:wmo:42887:1,2010-06-02T11:20:00Z,28.1910,-88.4960,48.2,4.7,166.0,99.0,'11111222,11111222,11144222' 
ADCP,ioos:station:wmo:42887:1,2010-06-02T11:40:00Z,28.1910,-88.4960,48.2,4.5,169.0,99.0,'11111222,11111222,11144222' 
ADCP,ioos:station:wmo:42887:1,2010-06-02T12:00:00Z,28.1910,-88.4960,48.2,3.5,168.0,99.0,'11111222,11111222,11144222' 
ADCP,ioos:station:wmo:42887:1,2010-06-02T12:20:00Z,28.1910,-88.4960,48.2,4.1,164.0,99.0,'11111222,11111222,11144222' 
ADCP,ioos:station:wmo:42887:1,2010-06-02T12:40:00Z,28.1910,-88.4960,48.2,3.1,160.0,99.0,'11111222,11111222,11144222' 
ADCP,ioos:station:wmo:42887:1,2010-06-02T13:00:00Z,28.1910,-88.4960,48.2,2.9,160.0,99.0,'11111222,11111222,11144222' 
ADCP,ioos:station:wmo:42887:1,2010-06-02T13:20:00Z,28.1910,-88.4960,48.2,3.1,160.0,99.0,'11111222,11111222,11144222' 
ADCP,ioos:station:wmo:42887:1,2010-06-02T13:40:00Z,28.1910,-88.4960,48.2,2.9,160.0,99.0,'11111222,11111222,11144222' 
ADCP,ioos:station:wmo:42887:1,2010-06-02T14:00:00Z,28.1910,-88.4960,48.2,3.2,160.0,99.0,'11111222,11111222,11144222' 
ADCP,ioos:station:wmo:42887:1,2010-06-02T14:20:00Z,28.1910,-88.4960,48.2,2.5,160.0,99.0,'11111222,11111222,11144222' 
ADCP,ioos:station:wmo:42887:1,2010-06-02T14:40:00Z,28.1910,-88.4960,48.2,2.8,160.0,99.0,'11111222,11111222,11144222' 
ADCP,ioos:station:wmo:42887:1,2010-06-02T15:00:00Z,28.1910,-88.4960,48.2,2.6,160.0,99.0,'11111222,11111222,11144222' 
ADCP,ioos:station:wmo:42887:1,2010-06-02T15:20:00Z,28.1910,-88.4960,48.2,3.0,160.0,99.0,'11111222,11111222,11144222' 
ADCP,ioos:station:wmo:42887:1,2010-06-02T15:40:00Z,28.1910,-88.4960,48.2,3.7,160.0,99.0,'11111222,11111222,11144222' 
ADCP,ioos:station:wmo:42887:1,2010-06-02T16:00:00Z,28.1910,-88.4960,48.2,3.3,140.0,99.0,'11111222,11111222,11144222' 
ADCP,ioos:station:wmo:42887:1,2010-06-02T16:20:00Z,28.1910,-88.4960,48.2,5.2,135.0,99.0,'11111222,11111222,11144222' 
ADCP,ioos:station:wmo:42887:1,2010-06-02T16:40:00Z,28.1910,-88.4960,48.2,4.2,155.0,99.0,'11111222,11111222,11144222' 
ADCP,ioos:station:wmo:42887:1,2010-06-02T17:00:00Z,28.1910,-88.4960,48.2,1.1,137.0,99.0,'11111222,11111222,11144222' 
ADCP,ioos:station:wmo:42887:1,2010-06-02T19:20:00Z,28.1910,-88.4960,48.2,2.4,266.0,99.0,'11111222,11111222,11144222' 
ADCP,ioos:station:wmo:42887:1,2010-06-02T19:40:00Z,28.1910,-88.4960,48.2,3.8,343.0,99.0,'11111222,11111222,11144222' 
ADCP,ioos:station:wmo:42887:1,2010-06-02T20:00:00Z,28.1910,-88.4960,48.2,1.4,320.0,99.0,'11111222,11111222,11144222' 
ADCP,ioos:station:wmo:42887:1,2010-06-02T20:20:00Z,28.1910,-88.4960,48.2,1.0,320.0,99.0,'11111222,11111222,11144222' 
ADCP,ioos:station:wmo:42887:1,2010-06-02T20:40:00Z,28.1910,-88.4960,48.2,1.7,320.0,99.0,'11111222,11111222,11144222' 
ADCP,ioos:station:wmo:42887:1,2010-06-02T21:00:00Z,28.1910,-88.4960,48.2,1.3,320.0,99.0,'11111222,11111222,11144222' 
ADCP,ioos:station:wmo:42887:1,2010-06-02T21:20:00Z,28.1910,-88.4960,48.2,1.7,321.0,99.0,'11111222,11111222,11144222' 
ADCP,ioos:station:wmo:42887:1,2010-06-02T21:40:00Z,28.1910,-88.4960,48.2,1.3,321.0,99.0,'11111222,11111222,11144222' 
ADCP,ioos:station:wmo:42887:1,2010-06-02T22:00:00Z,28.1910,-88.4960,48.2,0.6,321.0,99.0,'11111222,11111222,11144222' 
ADCP,ioos:station:wmo:42887:1,2010-06-02T22:20:00Z,28.1910,-88.4960,48.2,2.1,321.0,99.0,'11111222,11111222,11144222' 
ADCP,ioos:station:wmo:42887:1,2010-06-02T22:40:00Z,28.1910,-88.4960,48.2,2.0,321.0,99.0,'11111222,11111222,11144222' 
ADCP,ioos:station:wmo:42887:1,2010-06-02T23:00:00Z,28.1910,-88.4960,48.2,0.9,321.0,99.0,'11111222,11111222,11144222' 
ADCP,ioos:station:wmo:42887:1,2010-06-02T23:20:00Z,28.1910,-88.4960,48.2,1.9,321.0,99.0,'11111222,11111222,11144222' 
ADCP,ioos:station:wmo:42887:1,2010-06-02T23:40:00Z,28.1910,-88.4960,48.2,2.5,321.0,99.0,'11111222,11111222,11144222' 
ADCP,ioos:station:wmo:42887:1,2010-06-03T00:00:00Z,28.1910,-88.4960,48.2,2.3,321.0,99.0,'11111222,11111222,11144222' 
ADCP,ioos:station:wmo:42887:1,2010-06-03T00:20:00Z,28.1910,-88.4960,48.2,2.8,321.0,99.0,'11111222,11111222,11144222' 
ADCP,ioos:station:wmo:42887:1,2010-06-03T00:40:00Z,28.1910,-88.4960,48.2,1.8,321.0,99.0,'11111222,11111222,11144222' 
ADCP,ioos:station:wmo:42887:1,2010-06-03T01:00:00Z,28.1910,-88.4960,48.2,1.9,321.0,99.0,'11111222,11111222,11144222' 
ADCP,ioos:station:wmo:42887:1,2010-06-03T01:20:00Z,28.1910,-88.4960,48.2,2.6,321.0,99.0,'11111222,11111222,11144222' 
ADCP,ioos:station:wmo:42887:1,2010-06-03T01:40:00Z,28.1910,-88.4960,48.2,3.0,321.0,99.0,'11111222,11111222,11144222' 
ADCP,ioos:station:wmo:42887:1,2010-06-03T02:00:00Z,28.1910,-88.4960,48.2,5.2,321.0,99.0,'11111222,11111222,11144222' 
ADCP,ioos:station:wmo:42887:1,2010-06-03T02:20:00Z,28.1910,-88.4960,48.2,6.0,135.0,99.0,'11111222,11111222,11144222' 
ADCP,ioos:station:wmo:42887:1,2010-06-03T02:40:00Z,28.1910,-88.4960,48.2,6.4,139.0,99.0,'11111222,11111222,11144222' 
ADCP,ioos:station:wmo:42887:1,2010-06-03T03:00:00Z,28.1910,-88.4960,48.2,5.8,129.0,99.0,'11111222,11111222,11144222' 
ADCP,ioos:station:wmo:42887:1,2010-06-03T03:20:00Z,28.1910,-88.4960,48.2,7.3,133.0,99.0,'11111222,11111222,11144222' 
ADCP,ioos:station:wmo:42887:1,2010-06-03T03:40:00Z,28.1910,-88.4960,48.2,6.1,127.0,99.0,'11111222,11111222,11144222' 
ADCP,ioos:station:wmo:42887:1,2010-06-03T04:00:00Z,28.1910,-88.4960,48.2,8.6,139.0,99.0,'11111222,11111222,11144222' 
ADCP,ioos:station:wmo:42887:1,2010-06-03T04:20:00Z,28.1910,-88.4960,48.2,6.1,136.0,99.0,'11111222,11111222,11144222' 
ADCP,ioos:station:wmo:42887:1,2010-06-03T04:40:00Z,28.1910,-88.4960,48.2,4.9,141.0,99.0,'11111222,11111222,11144222' 
ADCP,ioos:station:wmo:42887:1,2010-06-03T05:00:00Z,28.1910,-88.4960,48.2,3.7,132.0,99.0,'11111222,11111222,11144222' 
ADCP,ioos:station:wmo:42887:1,2010-06-03T05:20:00Z,28.1910,-88.4960,48.2,2.3,125.0,99.0,'11111222,11111222,11144222' 
ADCP,ioos:station:wmo:42887:1,2010-06-03T05:40:00Z,28.1910,-88.4960,48.2,4.6,114.0,99.0,'11111222,11111222,11144222' 
ADCP,ioos:station:wmo:42887:1,2010-06-03T06:00:00Z,28.1910,-88.4960,48.2,4.1,137.0,99.0,'11111222,11111222,11144222' 
ADCP,ioos:station:wmo:42887:1,2010-06-03T06:20:00Z,28.1910,-88.4960,48.2,5.8,141.0,99.0,'11111222,11111222,11144222' 
ADCP,ioos:station:wmo:42887:1,2010-06-03T06:40:00Z,28.1910,-88.4960,48.2,7.1,141.0,99.0,'11111222,11111222,11144222' 
ADCP,ioos:station:wmo:42887:1,2010-06-03T07:00:00Z,28.1910,-88.4960,48.2,6.7,140.0,99.0,'11111222,11111222,11144222' 
ADCP,ioos:station:wmo:42887:1,2010-06-03T07:20:00Z,28.1910,-88.4960,48.2,4.6,144.0,99.0,'11111222,11111222,11144222' 
ADCP,ioos:station:wmo:42887:1,2010-06-03T07:40:00Z,28.1910,-88.4960,48.2,5.9,148.0,99.0,'11111222,11111222,11144222' 
ADCP,ioos:station:wmo:42887:1,2010-06-03T08:00:00Z,28.1910,-88.4960,48.2,5.8,147.0,99.0,'11111222,11111222,11144222' 
ADCP,ioos:station:wmo:42887:1,2010-06-03T08:20:00Z,28.1910,-88.4960,48.2,6.0,145.0,99.0,'11111222,11111222,11144222' 
ADCP,ioos:station:wmo:42887:1,2010-06-03T08:40:00Z,28.1910,-88.4960,48.2,6.6,154.0,99.0,'11111222,11111222,11144222' 
ADCP,ioos:station:wmo:42887:1,2010-06-03T09:00:00Z,28.1910,-88.4960,48.2,5.5,139.0,99.0,'11111222,11111222,11144222' 
ADCP,ioos:station:wmo:42887:1,2010-06-03T09:20:00Z,28.1910,-88.4960,48.2,6.9,150.0,99.0,'11111222,11111222,11144222' 
ADCP,ioos:station:wmo:42887:1,2010-06-03T10:00:00Z,28.1910,-88.4960,48.2,7.1,192.0,99.0,'11111222,11111222,11144222' 
ADCP,ioos:station:wmo:42887:1,2010-06-03T10:20:00Z,28.1910,-88.4960,48.2,6.7,197.0,99.0,'11111222,11111222,11144222' 
ADCP,ioos:station:wmo:42887:1,2010-06-03T10:40:00Z,28.1910,-88.4960,48.2,6.5,196.0,99.0,'11111222,11111222,11144222' 
ADCP,ioos:station:wmo:42887:1,2010-06-03T11:00:00Z,28.1910,-88.4960,48.2,7.1,191.0,99.0,'11111222,11111222,11144222' 
ADCP,ioos:station:wmo:42887:1,2010-06-03T11:20:00Z,28.1910,-88.4960,48.2,4.1,183.0,99.0,'11111222,11111222,11144222' 
ADCP,ioos:station:wmo:42887:1,2010-06-03T11:40:00Z,28.1910,-88.4960,48.2,5.1,179.0,99.0,'11111222,11111222,11144222' 
ADCP,ioos:station:wmo:42887:1,2010-06-03T12:00:00Z,28.1910,-88.4960,48.2,5.1,180.0,99.0,'11111222,11111222,11144222' 
ADCP,ioos:station:wmo:42887:1,2010-06-03T12:20:00Z,28.1910,-88.4960,48.2,5.0,173.0,99.0,'11111222,11111222,11144222' 
ADCP,ioos:station:wmo:42887:1,2010-06-03T12:40:00Z,28.1910,-88.4960,48.2,5.4,180.0,99.0,'11111222,11111222,11144222' 
ADCP,ioos:station:wmo:42887:1,2010-06-03T13:00:00Z,28.1910,-88.4960,48.2,7.5,177.0,99.0,'11111222,11111222,11144222' 
ADCP,ioos:station:wmo:42887:1,2010-06-03T13:20:00Z,28.1910,-88.4960,48.2,5.6,188.0,99.0,'11111222,11111222,11144222' 
ADCP,ioos:station:wmo:42887:1,2010-06-03T13:40:00Z,28.1910,-88.4960,48.2,6.5,186.0,99.0,'11111222,11111222,11144222' 
ADCP,ioos:station:wmo:42887:1,2010-06-03T14:00:00Z,28.1910,-88.4960,48.2,6.3,191.0,99.0,'11111222,11111222,11144222' 
ADCP,ioos:station:wmo:42887:1,2010-06-03T14:20:00Z,28.1910,-88.4960,48.2,6.3,193.0,99.0,'11111222,11111222,11144222' 
ADCP,ioos:station:wmo:42887:1,2010-06-03T14:40:00Z,28.1910,-88.4960,48.2,5.2,179.0,99.0,'11111222,11111222,11144222' 
ADCP,ioos:station:wmo:42887:1,2010-06-03T15:00:00Z,28.1910,-88.4960,48.2,5.9,188.0,99.0,'11111222,11111222,11144222' 
ADCP,ioos:station:wmo:42887:1,2010-06-03T15:20:00Z,28.1910,-88.4960,48.2,6.4,191.0,99.0,'11111222,11111222,11144222' 
ADCP,ioos:station:wmo:42887:1,2010-06-03T15:40:00Z,28.1910,-88.4960,48.2,10.4,217.0,99.0,'11111222,11111222,11144222' 
ADCP,ioos:station:wmo:42887:1,2010-06-03T16:00:00Z,28.1910,-88.4960,48.2,8.7,205.0,99.0,'11111222,11111222,11144222' 
ADCP,ioos:station:wmo:42887:1,2010-06-03T16:20:00Z,28.1910,-88.4960,48.2,5.4,192.0,99.0,'11111222,11111222,11144222' 
ADCP,ioos:station:wmo:42887:1,2010-06-03T16:40:00Z,28.1910,-88.4960,48.2,6.0,201.0,99.0,'11111222,11111222,11144222' 
ADCP,ioos:station:wmo:42887:1,2010-06-03T17:00:00Z,28.1910,-88.4960,48.2,5.8,197.0,99.0,'11111222,11111222,11144222' 
ADCP,ioos:station:wmo:42887:1,2010-06-03T17:20:00Z,28.1910,-88.4960,48.2,6.3,196.0,99.0,'11111222,11111222,11144222' 
ADCP,ioos:station:wmo:42887:1,2010-06-03T17:40:00Z,28.1910,-88.4960,48.2,4.3,194.0,99.0,'11111222,11111222,11144222' 
ADCP,ioos:station:wmo:42887:1,2010-06-03T18:00:00Z,28.1910,-88.4960,48.2,5.2,190.0,99.0,'11111222,11111222,11144222' 
ADCP,ioos:station:wmo:42887:1,2010-06-03T18:40:00Z,28.1910,-88.4960,48.2,7.6,198.0,99.0,'11111222,11111222,11144222' 
ADCP,ioos:station:wmo:42887:1,2010-06-03T19:40:00Z,28.1910,-88.4960,48.2,5.9,217.0,99.0,'11111222,11111222,11144222' 
ADCP,ioos:station:wmo:42887:1,2010-06-03T20:00:00Z,28.1910,-88.4960,48.2,7.2,225.0,99.0,'11111222,11111222,11144222' 
ADCP,ioos:station:wmo:42887:1,2010-06-03T20:20:00Z,28.1910,-88.4960,48.2,5.6,222.0,99.0,'11111222,11111222,11144222' 
ADCP,ioos:station:wmo:42887:1,2010-06-03T20:40:00Z,28.1910,-88.4960,48.2,6.7,223.0,99.0,'11111222,11111222,11144222' 
ADCP,ioos:station:wmo:42887:1,2010-06-03T21:00:00Z,28.1910,-88.4960,48.2,5.8,216.0,99.0,'11111222,11111222,11144222' 
ADCP,ioos:station:wmo:42887:1,2010-06-03T21:20:00Z,28.1910,-88.4960,48.2,4.9,206.0,99.0,'11111222,11111222,11144222' 
ADCP,ioos:station:wmo:42887:1,2010-06-03T21:40:00Z,28.1910,-88.4960,48.2,4.7,203.0,99.0,'11111222,11111222,11144222' 
ADCP,ioos:station:wmo:42887:1,2010-06-03T22:00:00Z,28.1910,-88.4960,48.2,3.4,215.0,99.0,'11111222,11111222,11144222' 
ADCP,ioos:station:wmo:42887:1,2010-06-03T22:20:00Z,28.1910,-88.4960,48.2,1.2,181.0,99.0,'11111222,11111222,11144222' 
ADCP,ioos:station:wmo:42887:1,2010-06-03T22:40:00Z,28.1910,-88.4960,48.2,0.9,202.0,99.0,'11111222,11111222,11144222' 
ADCP,ioos:station:wmo:42887:1,2010-06-03T23:00:00Z,28.1910,-88.4960,48.2,2.2,278.0,99.0,'11111222,11111222,11144222' 